Погода Мыс Лопатка

Погода Мыс Лопатка : погода сейчас, прогноз погоды и архив. Всё, что Вы хотите узнать о погоде Мыс Лопатка!

Поиск расширенной информации на нашем сайте:

Другие новости

Новости СМИ2

Главная страница сайта

Новости сайта

03.07.2017

Напоминаем, что на нашем специализированном сайте Метеоцентр.Азия вы можете получить высокодетализированные автоматические прогнозы погоды по пунктам России, СНГ и мира в авиационном формате (включающие направление и скорость ветра, видимость, явления погоды, количество и форму облачности, нижнюю и верхнюю границу облачности).


Погода Мыс Лопатка - сегодня

Время (UTC), дата Ветер
(°,м/с) 
Видим.   Явления Облачность Т
(°С)
Тd
(°С)
f(%) Тe
(°С)
Pmin
(гПа)
dP
(гПа)
Po
(мм)
O2
(г/м3)
Тmin Tmax R s Состояние
почвы
18 13.05.18 360 (С) 0500 м  туман  ясно 
-0.8 -0.8 100 -3  1018.3  1.3  759  307           
03 14.05.18 120 (ЮВ) 20000 м    9/9 300 м 
[St]
+3.1 +2 92 1019.4  -0.6  760  302           
09 14.05.18 110 (В) 8-10{11}  20000 м    10/10 300 м 
[St]
+2 +0.7 91 -2  1019.7  0.4  760  304    +3.2       
21 14.05.18 090 (В) 14-17{18}  4000 м  слаб. морось  10/10 200 м 
[St]
+1.3 +0.8 96 -4  1019  0.4  759  304  +1.2    0.0     
09 15.05.18 080 (В) 16-21{23}  4000 м  дымка  10/10 200 м 
[St]
+2 +1.8 99 -4  1014.4  -1  756  302    +2.6  0.0     
21 15.05.18 070 (В) 16-22{22}  10 км  слаб. ливневой дождь  10/10 300 м кучево-дожд. 
[Cb cap]
+2.4 +1.9 97 -3  1009.6  -0.6  753  300  +2    0.4     
09 16.05.18 050 (СВ) 7{15}  10 км  слаб. ливневой дождь  10/10 300 м кучево-дожд. 
[Cb cap]
+3.2 +2.1 92 1005.4  -0.8  749  298    +4.5  0.8     
18 16.05.18 050 (СВ) 20000 м  в посл. час ливневой дождь  10/10 600 м 
[Sc]
+2.9 +1.7 92 1004.4  -0.4  749  298           
21 16.05.18 070 (В) 7-10{10}  20000 м    10/10 600 м 
[Sc]
+3.7 +2.3 91 +1  1003.7  -0.7  748  297  +2.3       
06 17.05.18 090 (В) 15-19{24}  4000 м  слаб. морось  10/10 200 м 
[St]
+2.4 +2.1 98 -3  998.5  -0.9  744  297           
09 17.05.18 090 (В) 16-21{21}  4000 м  слаб. дождь{морось}  10/10 200 м 
[Frnb|Ns]
+2.2 +2.1 99 -3  995.2  -3.3  742  296    +3.9  0.8     
21 17.05.18 060 (СВ) 14-17{20}  4000 м  снег  10/10 200 м 
[Frnb|Ns]
+0.6 +0.6 100 -5  991.9  739  297  +0.2    17  равномерный
мокрый или
старый снег
100% 
09 18.05.18 350 (С) 8-10{11}  20000 м  {дождь}  10/3 600 м средняя 
[Sc|Ac As]
+3.4 +1.7 89 998  1.9  744  296    +5.4     
03 19.05.18 120 (ЮВ) 20000 м  {дождь}  9/9 600 м средняя 
[Sc|Ac As]
+4.5 +2.1 84 +3  1012.5  2.7  755  299           
09 19.05.18 070 (В) 9-13{15}  20000 м    9/0 средняя 
[Ac As]
+3.3 +0.5 82 -1  1017.7  3.7  759  302    +5.4     
12 19.05.18 070 (В) 12-16{17}  20000 м    ясно 
+2.7 +0.2 84 -2  1018.7  759  303           
18 19.05.18 080 (В) 7{11}  20000 м    8/5 600 м верхняя 
[Sc|Ci fib]
+2.4 +0 84 -1  1020.7  1.2  761  304           
21 19.05.18 070 (В) 20000 м    9/9 600 м 
+3.2 +0.7 84 1021.2  0.5  761  303  +2.4         
09 20.05.18 090 (В) 10-13{13}  20000 м    10/3 600 м средняя 
[Sc|Ac As]
+2.1 +0.7 90 -2  1017.4  -0.8  758  303    +4.2       
21 20.05.18 090 (В) 19-26{28}  2000 м  дождь со снегом  10/10 200 м 
[Frnb|Ns]
+0.9 +0.7 99 -6  1006.5  -3.2  750  301  +0.5    мокрый или
старый снег
50-90% 
09 21.05.18 050 (СВ) 15-20{26}  10 км  слаб. ливневой дождь  10/10 300 м кучево-дожд. 
[Cb cap]
+2.1 +0.6 90 -3  998.1  -0.7  744  297    +2.2     
21 21.05.18 320 (СЗ) 8-10{16}  20000 м    9/0 средняя 
[Ac As]
+3.1 +2.5 96 995.2  0.2  742  295  +1.6      влажная 
09 22.05.18 310 (СЗ) 15-19{20}  20000 м    9/9 300 м 
[Sc]
+2.4 +1.3 92 -3  997.1  0.7  743  297    +3.1  0.7     
21 22.05.18 300 (СЗ) 11-13{17}  10 км    10/10 300 м 
[St]
+1.6 +0.9 95 -3  1000.2  1.5  746  298  +1.6        влажная 
09 23.05.18 310 (СЗ) 11-14{15}  4000 м  дымка  10/10 200 м 
[St]
+2.1 +1.8 98 -3  1005  1.6  749  299    +2.5  0.1     
Время (UTC), дата Ветер
(°,м/с) 
Видим.   Явления Облачность Т
(°С)
Тd
(°С)
f(%) Тe
(°С)
Pmin
(гПа)
dP
(гПа)
Po
(мм)
O2
(г/м3)
Тmin Tmax R s Состояние
почвы

Для получения пояснительной информации подведите курсор к названию столбца.

ПОГОДА Мыс Лопатка - архив

Всё, что Вы хотите узнать о погоде Мыс Лопатка - удобно и подробно!

Выберите нужную дату (начиная с 1 января 2015* года) и нажмите кнопку "Найти".
Будут отображены архивные сводки погоды по пункту Мыс Лопатка, начиная с указанной даты.


Отображать данные в формате CSV (для использования в таблицах Excel)


Внимание! Наш архив погоды предназначен исключительно для личного некоммерческого использования в познавательных целях. Если Вам необходимы официальные справки о состоянии погоды (для производственных, юридических, коммерческих и т.п. целей), обращайтесь в органы Росгидромета.

*Примечание: данная дата относится к архиву по метеостанциям СССР (Россия, СНГ, Балтия).
Архив по метеостанциям Зарубежной Европы и Азии (кроме Китая) хранится 10 дней, по другим регионам земного шара (Китай, Африка, Америка, Австралия, Океания) - 1 день.

Мыс Лопатка - район местоположения метеостанции


Название, широта, долгота, высота метеостанции:
Мыс Лопатка 50.9°ш. 156.7°д. 48 м над ур. моря [Российская Федерация]

Дополнительная информация

В oтличие oт бoльшинства пoгoдных сайтoв мы публикуем пoдрoбную метеoинфoрмацию в детальнoм прoфессиoнальнoм фoрмате.

Характеристики температуры и влажнoсти вoздуха измеряются на высoте 2 м в тени вдали oт зданий и деревьев.
Скoрoсть ветра измеряется на высoте 10 м (на урoвне рoста челoвека скoрoсть ветра ниже в 1.5-2 раза). Если метеoстанция нахoдится в гoрoде или в лесу, тo скoрoсть ветра занижена на 2-4 м/с пo сравнению с oткрытым местoм. Скoрoсть ветра над акватoриями крупных рек и oзёр, а также на вершинах хoлмoв на 2-5 м/с выше, чем в oбычных услoвиях.
Атмoсфернoе давление в разных тoчках местнoсти мoжет значительнo oтличаться oт давления на метеoстанции, в зависимoсти oт услoвий рельефа (при пoдъёме на 10 м давление пoнижается примернo на 1 мм рт.ст.).